User: anonymous   Login
Location: Arcones
(41.1182°N, 3.7238°W)
Time: 15:20:42
(UTC+00:00)
Language:

ATLAS CENTAUR R/B - Orbit

View from above orbital plane
View from above orbital plane
View from above satellite
View from above satellite

Ground track
Ground track

The orbit is defined by the following mean orbital elements,

1 38770U          26042.28646779 +.00000000 +00000-0 +11431-2 0 00003
2 38770  64.6299 322.6469 0034263 221.6505 138.2039 15.78482347    09
Epoch (UTC): 11 February 2026 06:52:30
Eccentricity: 0.0034263
inclination: 64.6299°
perigee height: 312 km
apogee height: 358 km
right ascension of ascending node: 322.6469°
argument of perigee: 221.6505°
revolutions per day: 15.78482347
mean anomaly at epoch: 138.2039°

The dashed part of the orbit path shows where the satellite is in the earth's shadow,  

DLR